Regional Weather Roundup
Issued by NWS

Home | Current Version | Previous Version | Graphics & Text | Print | Product List | Glossary Off
Versions: 1 2 3 4 5 6 7 8 9 10 11 12 13 14 15 16 17 18 19 20 21 22 23 24 25 26 27 28 29 30 31 32 33 34 35 36 37 38 39 40 41 42 43 44 45 46 47 48 49 50

216
ASUS43 KDTX 300210
RWRMI
MICHIGAN HOURLY REGIONAL WEATHER ROUNDUP
NATIONAL WEATHER SERVICE DETROIT/PONTIAC MI
ISSUED BY NATIONAL WEATHER SERVICE GRAND RAPIDS MI
1000 PM EDT MON MAY 29 2017

NOTE: "FAIR" INDICATES FEW OR NO CLOUDS BELOW 12,000 FEET WITH NO
SIGNIFICANT WEATHER AND/OR OBSTRUCTION TO VISIBILITY.

MIZ047>049-052>055-059>063-066>070-074>076-081>083-300300-
SOUTHEAST LOWER MICHIGAN

CITY           SKY/WX    TMP DP  RH WIND       PRES   REMARKS
ADRIAN         MOCLDY    62  52  69 W7        29.87R
ALMA           CLEAR     62  44  52 W5        29.83S
ANN ARBOR      MOCLDY    64  50  60 SW8       29.86R
BAD AXE        CLEAR     61  44  53 W5        29.82R
DETROIT CITY   MOCLDY    66  54  65 SW12      29.84R
DETROIT        MOCLDY    65  52  62 SW13      29.86R
FLINT          CLEAR     65  42  43 W8        29.84R
GROSSE ILE     CLOUDY    64  56  75 CALM      29.85R
HILLSDALE      CLEAR     59  46  63 NW6       29.87S
HOWELL         CLEAR     64  41  42 SW3       29.85R

CITY           SKY/WX    TMP DP  RH WIND       PRES   REMARKS
JACKSON        PTCLDY    64  44  48 W6        29.87R
LANSING        CLEAR     66  42  41 W9        29.85R
MASON          CLEAR     64  45  48 W3        29.86R
MONROE         MOCLDY    64  55  71 W8        29.87R
MT. CLEMENS    MOCLDY    62  56  80 S8        29.83R
PONTIAC        MOCLDY    65  51  60 W5        29.84R
PORT HOPE        N/A     64  45  49 W3        29.79R
PORT HURON     MOCLDY    63  50  63 S6        29.84R
TRI CITIES     CLEAR     65  45  48 W10       29.82R
YPSILANTI      MOCLDY    67  53  61 SW15      29.87R
$$
MIZ043>046-050>051-056>058-064>065-071>073-077>080-300300-
SOUTHWEST LOWER MICHIGAN

CITY           SKY/WX    TMP DP  RH WIND       PRES   REMARKS
BATTLE CREEK   CLEAR     61  45  55 W6        29.87R
BENTON HARBOR  PTCLDY    58  47  66 CALM      29.86S
BIG RAPIDS     CLEAR     58  43  56 SW3       29.81R
COLDWATER      PTCLDY    63  43  48 W6        29.88S
HOLLAND        PTCLDY    59  47  64 SW5       29.86R
GRAND RAPIDS   PTCLDY    61  47  59 W8        29.84R
KALAMAZOO      CLEAR     64  43  46 W5        29.87R
MARSHALL       CLEAR     61  44  54 SW3       29.86S
MOUNT PLEASANT CLEAR     62  44  51 SW5       29.82R
MUSKEGON       MOCLDY    57  49  74 SW8       29.84R
STURGIS        CLEAR     63  47  56 MISG      29.87S
$$
MIZ016>042-300300-
NORTHERN LOWER MICHIGAN

CITY           SKY/WX    TMP DP  RH WIND       PRES   REMARKS
ALPENA         MOCLDY    61  49  64 CALM      29.76R
BEAVER ISLAND  MOCLDY    52  47  83 SW7       29.72S
BELLAIRE       MOCLDY    60  46  60 SW3       29.76R
CADILLAC       MOCLDY    57  45  65 SW6       29.79S
CHARLEVOIX     CLOUDY    58  47  68 SW7       29.77S
GAYLORD        PTCLDY    57  45  64 SW7       29.76S
HOUGHTON LAKE  MOCLDY    61  45  55 SW9       29.80R
MANISTEE       CLOUDY    60  47  61 W12G18    29.79R
OSCODA         MOCLDY    62  43  49 W9        29.78R
PELLSTON       MOCLDY    56  46  69 SW9       29.74R
TRAVERSE CITY  PTCLDY    61  47  59 SW5       29.75R
LUDINGTON      CLOUDY    55  49  81 S3        29.80R
$$
MIZ007>008-015-300300-
EASTERN UPPER MICHIGAN

CITY           SKY/WX    TMP DP  RH WIND       PRES   REMARKS
KINROSS        MOCLDY    53  48  83 VRB6      29.71R
MACKINAC ISLAN PTCLDY    52  47  84 SW10G16   29.72R
NEWBERRY       MOCLDY    50  49  97 CALM      29.70R
S. S. MARIE    MOCLDY    57  51  80 SW3       29.70R
$$
MIZ004>006-011>014-085-300300-
CENTRAL UPPER MICHIGAN

CITY           SKY/WX    TMP DP  RH WIND       PRES   REMARKS
MANISTIQUE     CLOUDY    50  47  90 SW6       29.70S
ESCANABA       CLOUDY    54  53  97 W3        29.71R
SAWYER-GWINN   CLOUDY    55  52  88 SW7       29.69R
$$
MIZ001>003-009>011-084-300300-
WESTERN UPPER MICHIGAN

CITY           SKY/WX    TMP DP  RH WIND       PRES   REMARKS
IRON MOUNTAIN  CLOUDY    54  49  83 W7        29.71R
HOUGHTON       CLOUDY    52  46  80 W13       29.65R
COPPER HARBOR    N/A     55  49  80 W6        29.61S
IRONWOOD       CLOUDY    53  48  83 W13       29.74S
$$

ABBREVIATIONS USED IN REMARKS
   TC - TEMPERATURE IN CELSIUS
  WCI - WIND CHILL INDEX
   HX - HEAT INDEX
  VSB - VISIBILITY





USA.gov is the U.S. government's official web portal to all federal, state and local government web resources and services.